K7RMR Weather Reports


time (UTC)temp
C
wind
direction
speed
KPH
gust
KPH
rain 1hr
cm
rain 24hr
cm
rain mn
cm
humidity
%
barometer
mb
20260505010046 27 259 14.5 27.4 0.00 0.00 0.00 31 1005.4
20260505004559 27 283 12.9 24.1 0.00 0.00 0.00 30 1005.4
20260505003053 27 295 11.3 37.0 0.00 0.00 0.00 29 1005.4
20260505001542 28 296 14.5 24.1 0.00 0.00 0.00 28 1005.4
20260505000056 28 273 14.5 25.7 0.00 0.00 0.00 27 1005.2
20260504234541 28 254 14.5 29.0 0.00 0.00 0.00 28 1005.1
20260504233053 28 312 16.1 30.6 0.00 0.00 0.00 27 1005.2
20260504231550 28 298 12.9 25.7 0.00 0.00 0.00 27 1005.2
20260504230040 29 252 9.7 25.7 0.00 0.00 0.00 26 1005.4
20260504224548 28 298 6.4 17.7 0.00 0.00 0.00 27 1005.5
20260504223041 29 277 6.4 12.9 0.00 0.00 0.00 25 1005.6
20260504221600 29 91 1.6 11.3 0.00 0.00 0.00 27 1005.7
20260504220127 29 324 4.8 14.5 0.00 0.00 0.00 25 1006.0
20260504214548 29 23 1.6 6.4 0.00 0.00 0.00 26 1006.1
20260504213123 28 190 3.2 8.0 0.00 0.00 0.00 27 1006.5
20260504211550 28 137 6.4 12.9 0.00 0.00 0.00 28 1006.7
20260504210039 28 127 6.4 14.5 0.00 0.00 0.00 26 1006.9
20260504204601 28 94 1.6 8.0 0.00 0.00 0.00 26 1007.1
20260504203038 27 134 3.2 8.0 0.00 0.00 0.00 29 1007.2
20260504201553 27 110 8.0 16.1 0.00 0.00 0.00 31 1007.3
20260504200046 27 101 1.6 6.4 0.00 0.00 0.00 32 1007.6
20260504194554 26 142 3.2 8.0 0.00 0.00 0.00 36 1007.8
20260504193045 25 140 1.6 8.0 0.00 0.00 0.00 44 1008.0
20260504191542 25 121 0.0 8.0 0.00 0.00 0.00 43 1008.1
20260504190052 23 127 0.0 11.3 0.00 0.00 0.00 45 1008.4
20260504184542 23 94 1.6 8.0 0.00 0.00 0.00 45 1008.6
20260504183051 22 140 3.2 8.0 0.00 0.00 0.00 46 1008.7
20260504181544 22 104 1.6 6.4 0.00 0.00 0.00 48 1008.8
20260504180053 21 53 1.6 8.0 0.00 0.00 0.00 48 1008.8
20260504174545 20 107 1.6 6.4 0.00 0.00 0.00 52 1008.9
20260504173057 20 73 3.2 8.0 0.00 0.00 0.00 53 1009.0
20260504171544 19 132 1.6 6.4 0.00 0.00 0.00 54 1009.0
20260504081554 10 327 0.0 0.0 0.00 0.00 0.00 78 1009.1
20260504044542 18 326 0.0 0.0 0.00 0.00 0.00 56 1008.8
20260504043050 18 326 0.0 0.0 0.00 0.00 0.00 54 1008.5
20260504041558 19 326 0.0 6.4 0.00 0.00 0.00 52 1008.4
20260504040145 20 238 0.0 3.2 0.00 0.00 0.00 51 1008.3
20260504034540 21 238 0.0 3.2 0.00 0.00 0.00 50 1008.2
20260504033050 22 163 1.6 4.8 0.00 0.00 0.00 46 1008.0
20260504031541 23 167 0.0 4.8 0.00 0.00 0.00 42 1007.8
20260504030049 23 163 0.0 3.2 0.00 0.00 0.00 39 1007.7
20260504024517 25 137 0.0 0.0 0.00 0.00 0.00 37 1007.6
20260504023056 26 137 0.0 0.0 0.00 0.00 0.00 33 1007.5
20260504021547 26 137 0.0 1.6 0.00 0.00 0.00 33 1007.4
20260504020132 27 137 0.0 3.2 0.00 0.00 0.00 30 1007.5
20260504014600 27 137 1.6 4.8 0.00 0.00 0.00 28 1007.6
20260504013050 27 108 1.6 6.4 0.00 0.00 0.00 27 1007.7
20260504011558 27 117 1.6 6.4 0.00 0.00 0.00 30 1007.6